• In Italy
  • List of Countries
  • For 7 days
  • Water Temperature
  • Satellite Maps
  • Weather Map
  • Weather Widgets
  • user-avatar
    Login

    Hourly Weather Neuquén

    Today, 20 September, Wednesday

    Time Temperature Precipitation Wind Pressure Humidity
    00:00 +13°C° 0 mm 9 mps 735 mmHg 42%
    01:00 +13°C° 0 mm 9 mps 735 mmHg 43%
    02:00 +12°C° 0 mm 9 mps 735 mmHg 45%
    03:00 +12°C° 0 mm 9 mps 736 mmHg 46%
    04:00 +11°C° 0 mm 10 mps 736 mmHg 48%
    05:00 +11°C° 0 mm 10 mps 737 mmHg 45%
    06:00 +11°C° 0 mm 11 mps 738 mmHg 42%
    07:00 +10°C° 0 mm 12 mps 738 mmHg 40%
    08:00 +12°C° 0 mm 12 mps 739 mmHg 35%
    09:00 +13°C° 0 mm 11 mps 739 mmHg 31%
    10:00 +14°C° 0 mm 10 mps 739 mmHg 27%
    11:00 +16°C° 0 mm 10 mps 739 mmHg 25%
    12:00 +17°C° 0 mm 9 mps 739 mmHg 23%
    13:00 +18°C° 0 mm 8 mps 739 mmHg 21%
    14:00 +18°C° 0 mm 8 mps 739 mmHg 22%
    15:00 +18°C° 0 mm 8 mps 739 mmHg 22%
    16:00 +18°C° 0 mm 7 mps 739 mmHg 22%
    17:00 +17°C° 0 mm 7 mps 739 mmHg 25%
    18:00 +16°C° 0 mm 6 mps 739 mmHg 28%
    19:00 +15°C° 0 mm 5 mps 740 mmHg 31%
    20:00 +15°C° 0 mm 6 mps 740 mmHg 34%
    21:00 +14°C° 0 mm 6 mps 740 mmHg 36%
    22:00 +13°C° 0 mm 6 mps 741 mmHg 39%
    23:00 +13°C° 0 mm 5 mps 741 mmHg 41%

    Tomorrow, 21 September, Thursday

    Time Temperature Precipitation Wind Pressure Humidity
    00:00 +12°C° 0 mm 4 mps 740 mmHg 43%
    01:00 +12°C° 0 mm 4 mps 740 mmHg 45%
    02:00 +11°C° 0 mm 3 mps 740 mmHg 46%
    03:00 +11°C° 0 mm 3 mps 740 mmHg 47%
    04:00 +10°C° 0 mm 2 mps 739 mmHg 48%
    05:00 +12°C° 0 mm 2 mps 740 mmHg 46%
    06:00 +13°C° 0 mm 2 mps 740 mmHg 44%
    07:00 +13°C° 0 mm 1 mps 740 mmHg 41%
    08:00 +15°C° 0 mm 2 mps 740 mmHg 37%
    09:00 +16°C° 0 mm 2 mps 740 mmHg 32%
    10:00 +18°C° 0 mm 2 mps 740 mmHg 28%
    11:00 +19°C° 0 mm 3 mps 739 mmHg 25%
    12:00 +20°C° 0 mm 4 mps 738 mmHg 23%
    13:00 +22°C° 0 mm 5 mps 737 mmHg 21%
    14:00 +22°C° 0 mm 5 mps 737 mmHg 20%
    15:00 +22°C° 0 mm 4 mps 736 mmHg 20%
    16:00 +23°C° 0 mm 4 mps 735 mmHg 19%
    17:00 +22°C° 0 mm 4 mps 735 mmHg 21%
    18:00 +21°C° 0 mm 3 mps 735 mmHg 23%
    19:00 +20°C° 0 mm 2 mps 735 mmHg 24%
    20:00 +20°C° 0 mm 3 mps 735 mmHg 24%
    21:00 +19°C° 0 mm 3 mps 735 mmHg 24%
    22:00 +19°C° 0 mm 4 mps 735 mmHg 24%
    23:00 +18°C° 0 mm 4 mps 735 mmHg 25%

    Day after tomorrow, 22 September, Friday

    Time Temperature Precipitation Wind Pressure Humidity
    00:00 +18°C° 0 mm 4 mps 735 mmHg 27%
    01:00 +17°C° 0 mm 4 mps 734 mmHg 28%
    02:00 +16°C° 0 mm 5 mps 735 mmHg 32%
    03:00 +15°C° 0 mm 6 mps 735 mmHg 36%
    04:00 +14°C° 0 mm 7 mps 735 mmHg 40%
    05:00 +13°C° 0 mm 8 mps 735 mmHg 40%
    06:00 +13°C° 0 mm 9 mps 736 mmHg 40%
    07:00 +13°C° 0 mm 10 mps 736 mmHg 40%
    08:00 +16°C° 0 mm 10 mps 737 mmHg 36%
    09:00 +17°C° 0 mm 9 mps 737 mmHg 32%
    10:00 +20°C° 0 mm 8 mps 737 mmHg 28%
    11:00 +21°C° 0 mm 8 mps 737 mmHg 25%
    12:00 +21°C° 0 mm 7 mps 736 mmHg 22%
    13:00 +22°C° 0 mm 6 mps 736 mmHg 19%
    14:00 +22°C° 0 mm 6 mps 735 mmHg 19%
    15:00 +22°C° 0 mm 6 mps 735 mmHg 18%
    16:00 +22°C° 0 mm 6 mps 735 mmHg 18%
    17:00 +21°C° 0 mm 5 mps 735 mmHg 20%
    18:00 +20°C° 0 mm 5 mps 735 mmHg 22%
    19:00 +19°C° 0 mm 4 mps 736 mmHg 24%
    20:00 +18°C° 0 mm 4 mps 736 mmHg 25%
    21:00 +18°C° 0 mm 4 mps 737 mmHg 27%
    22:00 +17°C° 0 mm 4 mps 737 mmHg 28%
    23:00 +17°C° 0 mm 4 mps 737 mmHg 33%

    23 September, Saturday

    Time Temperature Precipitation Wind Pressure Humidity
    00:00 +15°C° 0 mm 4 mps 737 mmHg 39%
    01:00 +14°C° 0 mm 5 mps 737 mmHg 45%
    02:00 +13°C° 0 mm 5 mps 737 mmHg 49%
    03:00 +13°C° 0 mm 5 mps 737 mmHg 53%
    04:00 +12°C° 0 mm 5 mps 737 mmHg 57%
    05:00 +13°C° 0 mm 5 mps 737 mmHg 56%
    06:00 +13°C° 0 mm 6 mps 737 mmHg 55%
    07:00 +14°C° 0 mm 6 mps 737 mmHg 54%
    08:00 +16°C° 0 mm 7 mps 737 mmHg 46%
    09:00 +18°C° 0 mm 7 mps 737 mmHg 39%
    10:00 +21°C° 0 mm 8 mps 736 mmHg 31%
    11:00 +22°C° 0 mm 8 mps 735 mmHg 27%
    12:00 +23°C° 0 mm 8 mps 734 mmHg 23%
    13:00 +26°C° 0 mm 9 mps 733 mmHg 19%
    14:00 +26°C° 0 mm 8 mps 732 mmHg 18%
    15:00 +27°C° 0 mm 8 mps 732 mmHg 18%
    16:00 +27°C° 0 mm 8 mps 731 mmHg 17%
    17:00 +26°C° 0 mm 7 mps 731 mmHg 20%
    18:00 +24°C° 0 mm 7 mps 731 mmHg 22%
    19:00 +24°C° 0 mm 6 mps 731 mmHg 25%
    20:00 +23°C° 0 mm 6 mps 730 mmHg 26%
    21:00 +23°C° 0 mm 7 mps 730 mmHg 28%
    22:00 +23°C° 0 mm 7 mps 730 mmHg 29%
    23:00 +22°C° 0 mm 7 mps 729 mmHg 30%

    24 September, Sunday

    Time Temperature Precipitation Wind Pressure Humidity
    00:00 +21°C° 0 mm 6 mps 729 mmHg 30%
    01:00 +20°C° 0 mm 6 mps 729 mmHg 31%
    02:00 +19°C° 0 mm 6 mps 730 mmHg 33%
    03:00 +17°C° 0 mm 6 mps 730 mmHg 34%
    04:00 +16°C° 0 mm 5 mps 730 mmHg 36%
    05:00 +16°C° 0 mm 6 mps 731 mmHg 35%
    06:00 +17°C° 0 mm 6 mps 732 mmHg 35%
    07:00 +17°C° 0 mm 7 mps 732 mmHg 34%
    08:00 +18°C° 0 mm 8 mps 733 mmHg 31%
    09:00 +19°C° 0 mm 9 mps 733 mmHg 28%
    10:00 +22°C° 0 mm 11 mps 733 mmHg 24%
    11:00 +22°C° 0 mm 11 mps 733 mmHg 21%
    12:00 +23°C° 0 mm 11 mps 733 mmHg 17%
    13:00 +24°C° 0 mm 12 mps 733 mmHg 13%
    14:00 +23°C° 0 mm 11 mps 733 mmHg 14%
    15:00 +22°C° 0 mm 11 mps 733 mmHg 15%
    16:00 +22°C° 0 mm 11 mps 734 mmHg 16%
    17:00 +19°C° 0 mm 10 mps 734 mmHg 20%
    18:00 +17°C° 0 mm 9 mps 735 mmHg 24%
    19:00 +16°C° 0 mm 8 mps 736 mmHg 28%
    20:00 +15°C° 0 mm 7 mps 736 mmHg 30%
    21:00 +14°C° 0 mm 5 mps 737 mmHg 32%
    22:00 +14°C° 0 mm 4 mps 737 mmHg 33%
    23:00 +13°C° 0 mm 4 mps 737 mmHg 34%

    25 September, Monday

    Time Temperature Precipitation Wind Pressure Humidity
    00:00 +13°C° 0 mm 4 mps 737 mmHg 35%
    01:00 +12°C° 0 mm 3 mps 737 mmHg 36%
    02:00 +12°C° 0 mm 3 mps 737 mmHg 37%
    03:00 +12°C° 0 mm 3 mps 737 mmHg 37%
    04:00 +11°C° 0 mm 3 mps 737 mmHg 38%
    05:00 +12°C° 0 mm 3 mps 737 mmHg 36%
    06:00 +12°C° 0 mm 4 mps 738 mmHg 33%
    07:00 +12°C° 0 mm 4 mps 738 mmHg 31%
    08:00 +13°C° 0 mm 4 mps 738 mmHg 29%
    09:00 +14°C° 0 mm 4 mps 737 mmHg 26%
    10:00 +15°C° 0 mm 5 mps 737 mmHg 24%
    11:00 +16°C° 0 mm 5 mps 737 mmHg 24%
    12:00 +17°C° 0 mm 4 mps 736 mmHg 24%
    13:00 +18°C° 0 mm 4 mps 735 mmHg 25%
    14:00 +18°C° 0 mm 4 mps 735 mmHg 26%
    15:00 +17°C° 0 mm 5 mps 735 mmHg 27%
    16:00 +17°C° 0 mm 5 mps 735 mmHg 29%
    17:00 +16°C° 0 mm 6 mps 735 mmHg 37%
    18:00 +14°C° 0 mm 6 mps 736 mmHg 46%
    19:00 +12°C° 0 mm 7 mps 736 mmHg 55%
    20:00 +11°C° 0.1 mm 7 mps 737 mmHg 60%
    21:00 +10°C° 0.1 mm 7 mps 737 mmHg 66%
    22:00 +10°C° 0.1 mm 6 mps 738 mmHg 72%
    23:00 +9°C° 0.2 mm 6 mps 738 mmHg 70%
    Show more